GW5693 Weather Reports


time (UTC)temp
F
wind
direction
speed
knots
gust
knots
rain 1hr
in
rain 24hr
in
rain mn
in
humidity
%
barometer
mb
20260510064304 55 1 0.0 0.0 0.00 0.00 0.00 69 1011.9
20260510063804 56 13 0.0 0.0 0.00 0.00 0.00 69 1011.9
20260510063305 56 13 0.0 0.9 0.00 0.00 0.00 68 1012.0
20260510062803 56 290 0.0 0.9 0.00 0.00 0.00 68 1011.9
20260510062306 56 296 0.0 0.9 0.00 0.00 0.00 68 1012.0
20260510061803 56 239 0.0 0.0 0.00 0.00 0.00 68 1011.9
20260510061304 56 273 0.0 0.9 0.00 0.00 0.00 68 1011.9
20260510060803 56 309 0.0 0.0 0.00 0.00 0.00 68 1011.9
20260510060303 56 271 0.0 0.0 0.00 0.00 0.00 68 1012.0
20260510055804 56 302 0.0 0.9 0.00 0.00 0.00 68 1012.0
20260510055307 56 72 0.0 0.0 0.00 0.00 0.00 68 1012.0
20260510054804 56 80 0.0 0.0 0.00 0.00 0.00 67 1012.0
20260510054304 56 80 0.0 0.0 0.00 0.00 0.00 67 1012.0
20260510053805 56 80 0.0 0.0 0.00 0.00 0.00 67 1011.9
20260510053304 56 80 0.0 0.0 0.00 0.00 0.00 67 1012.0
20260510052804 56 80 0.0 0.0 0.00 0.00 0.00 67 1011.9
20260510052306 56 80 0.0 0.0 0.00 0.00 0.00 68 1011.9
20260510051804 56 80 0.0 0.0 0.00 0.00 0.00 68 1011.9
20260510051304 56 81 0.0 0.0 0.00 0.00 0.00 68 1012.1
20260510050805 55 80 0.0 0.0 0.00 0.00 0.00 69 1012.1
20260510050303 55 80 0.0 0.0 0.00 0.00 0.00 69 1012.2
20260510045803 56 80 0.0 0.0 0.00 0.00 0.00 68 1012.1
20260510045306 56 81 0.0 0.0 0.00 0.00 0.00 69 1012.2
20260510044803 56 80 0.0 0.0 0.00 0.00 0.00 68 1012.1
20260510044303 56 80 0.0 0.0 0.00 0.00 0.00 68 1012.1
20260510043303 55 80 0.0 0.0 0.00 0.00 0.00 69 1012.2
20260510042306 55 80 0.0 0.0 0.00 0.00 0.00 70 1012.3
20260510041804 55 80 0.0 0.0 0.00 0.00 0.00 70 1012.3
20260510041304 56 80 0.0 0.0 0.00 0.00 0.00 70 1012.3
20260510040303 56 80 0.0 0.0 0.00 0.00 0.00 71 1012.2
20260510035803 56 80 0.0 0.0 0.00 0.00 0.00 71 1012.3
20260510035306 56 80 0.0 0.0 0.00 0.00 0.00 70 1012.3
20260510034804 56 80 0.0 0.0 0.00 0.00 0.00 69 1012.3
20260510034305 57 80 0.0 0.0 0.00 0.00 0.00 69 1012.3
20260510033804 57 80 0.0 0.0 0.00 0.00 0.00 69 1012.4
20260510032306 57 81 0.0 0.0 0.00 0.00 0.00 68 1012.2
20260510031805 57 80 0.0 0.0 0.00 0.00 0.00 68 1012.1
20260510031304 57 80 0.0 0.0 0.00 0.00 0.00 69 1012.1
20260510030804 57 80 0.0 0.0 0.00 0.00 0.00 69 1012.1
20260510030304 58 81 0.0 0.0 0.00 0.00 0.00 70 1012.1
20260510025805 58 80 0.0 0.0 0.00 0.00 0.00 70 1012.0
20260510025306 58 81 0.0 0.0 0.00 0.00 0.00 70 1011.9
20260510024804 59 81 0.0 0.0 0.00 0.00 0.00 70 1011.8
20260510024303 59 81 0.0 0.0 0.00 0.00 0.00 69 1011.9
20260510023803 59 81 0.0 0.0 0.00 0.00 0.00 68 1011.8
20260510023303 59 80 0.0 0.0 0.00 0.00 0.00 67 1011.7
20260510022804 60 81 0.0 0.0 0.00 0.00 0.00 68 1011.6
20260510022306 60 81 0.0 0.0 0.00 0.00 0.00 68 1011.6
20260510021804 60 80 0.0 0.0 0.00 0.00 0.00 68 1011.4
20260510021304 60 81 0.0 0.0 0.00 0.00 0.00 70 1011.3
20260510020303 60 81 0.0 0.0 0.00 0.00 0.00 70 1011.3
20260510015804 60 80 0.0 0.0 0.00 0.00 0.00 70 1011.1
20260510015306 60 81 0.0 0.0 0.00 0.00 0.00 69 1011.0
20260510014804 60 81 0.0 0.0 0.00 0.00 0.00 69 1011.0
20260510014304 61 81 0.0 0.0 0.00 0.00 0.00 67 1010.9
20260510013804 61 81 0.0 0.0 0.00 0.00 0.00 67 1010.7
20260510013304 62 81 0.0 0.0 0.00 0.00 0.00 67 1010.7
20260510012804 61 81 0.0 0.9 0.00 0.00 0.00 67 1010.7
20260510012307 61 80 0.9 0.9 0.00 0.00 0.00 67 1010.6
20260510011805 61 81 0.0 0.0 0.00 0.00 0.00 67 1010.4
20260510011304 61 80 0.0 0.0 0.00 0.00 0.00 66 1010.4
20260510010803 61 81 0.0 0.0 0.00 0.00 0.00 65 1010.3
20260510010304 62 81 0.0 0.0 0.00 0.00 0.00 64 1010.2
20260510005804 63 81 0.0 0.0 0.00 0.00 0.00 62 1010.2
20260510005306 63 80 0.0 0.0 0.00 0.00 0.00 61 1010.2
20260510004804 64 81 0.0 0.0 0.00 0.00 0.00 60 1010.1
20260510003803 65 81 0.0 0.0 0.00 0.00 0.00 58 1009.8
20260510003305 65 81 0.0 0.0 0.00 0.00 0.00 58 1009.7
20260510002804 66 81 0.0 0.0 0.00 0.00 0.00 57 1009.6
20260510002306 66 81 0.0 0.9 0.00 0.00 0.00 56 1009.5
20260510001805 67 81 0.0 1.7 0.00 0.00 0.00 56 1009.5
20260510001304 67 311 0.0 0.0 0.00 0.00 0.00 54 1009.4
20260510000304 69 311 0.0 0.0 0.00 0.00 0.00 52 1009.2
20260509235804 69 311 0.0 0.9 0.00 0.00 0.00 51 1009.2
20260509235307 70 304 0.0 0.0 0.00 0.00 0.00 50 1009.1
20260509234804 70 304 0.0 0.9 0.00 0.00 0.00 50 1009.1
20260509234304 70 304 0.9 1.7 0.00 0.00 0.00 49 1009.1
20260509233804 71 231 0.0 0.9 0.00 0.00 0.00 49 1009.1
20260509233304 71 231 0.0 0.9 0.00 0.00 0.00 49 1009.1
20260509232804 71 281 0.9 1.7 0.00 0.00 0.00 48 1009.1
20260509232306 71 233 0.0 0.9 0.00 0.00 0.00 49 1009.1
20260509231304 72 233 0.9 2.6 0.00 0.00 0.00 47 1009.1
20260509230803 72 273 0.9 1.7 0.00 0.00 0.00 46 1009.0
20260509230304 72 318 1.7 2.6 0.00 0.00 0.00 45 1009.0
20260509225804 73 261 0.0 1.7 0.00 0.00 0.00 45 1009.0
20260509225306 73 328 0.9 2.6 0.00 0.00 0.00 44 1009.0
20260509224304 74 236 0.9 4.3 0.00 0.00 0.00 44 1009.0
20260509223803 75 287 0.9 1.7 0.00 0.00 0.00 43 1009.1
20260509223303 75 257 1.7 2.6 0.00 0.00 0.00 40 1009.0
20260509222804 76 208 0.9 2.6 0.00 0.00 0.00 40 1009.1
20260509222307 76 230 0.9 2.6 0.00 0.00 0.00 41 1009.1
20260509221804 76 230 0.9 2.6 0.00 0.00 0.00 41 1009.1
20260509221303 76 258 0.9 4.3 0.00 0.00 0.00 41 1009.1
20260509220803 77 239 0.9 1.7 0.00 0.00 0.00 41 1009.0
20260509220304 78 231 0.9 1.7 0.00 0.00 0.00 39 1008.9
20260509215803 78 216 0.9 2.6 0.00 0.00 0.00 39 1009.0
20260509215306 78 233 1.7 2.6 0.00 0.00 0.00 40 1008.8
20260509214804 78 226 0.9 2.6 0.00 0.00 0.00 40 1008.9
20260509214303 77 247 0.9 2.6 0.00 0.00 0.00 41 1008.9
20260509213303 77 270 2.6 6.1 0.00 0.00 0.00 40 1008.8
20260509212803 77 317 0.9 1.7 0.00 0.00 0.00 40 1008.8
20260509212306 76 201 0.9 2.6 0.00 0.00 0.00 42 1008.9
20260509211804 76 227 1.7 2.6 0.00 0.00 0.00 42 1008.8
20260509210803 75 206 1.7 4.3 0.00 0.00 0.00 42 1008.8
20260509210303 75 193 0.9 2.6 0.00 0.00 0.00 43 1008.8
20260509205804 75 235 0.9 2.6 0.00 0.00 0.00 43 1008.7
20260509204804 73 330 1.7 5.2 0.00 0.00 0.00 44 1008.7
20260509204304 74 273 1.7 2.6 0.00 0.00 0.00 42 1008.7
20260509203804 74 195 1.7 4.3 0.00 0.00 0.00 40 1008.6
20260509203304 75 275 0.9 4.3 0.00 0.00 0.00 41 1008.5
20260509202804 75 258 1.7 2.6 0.00 0.00 0.00 42 1008.5
20260509202306 74 288 0.9 2.6 0.00 0.00 0.00 43 1008.4
20260509201805 74 237 0.9 2.6 0.00 0.00 0.00 41 1008.5
20260509201304 75 270 0.9 2.6 0.00 0.00 0.00 42 1008.4
20260509200804 75 205 0.9 2.6 0.00 0.00 0.00 39 1008.3
20260509200304 76 201 1.7 4.3 0.00 0.00 0.00 39 1008.4
20260509195804 77 221 1.7 5.2 0.00 0.00 0.00 39 1008.4
20260509195306 77 238 1.7 7.8 0.00 0.00 0.00 40 1008.6
20260509194804 77 306 1.7 5.2 0.00 0.00 0.00 38 1008.6
20260509193803 77 224 1.7 5.2 0.00 0.00 0.00 37 1008.7
20260509193303 77 257 1.7 4.3 0.00 0.00 0.00 38 1008.8
20260509192804 77 244 1.7 4.3 0.00 0.00 0.00 39 1008.9
20260509191303 78 290 1.7 5.2 0.00 0.00 0.00 39 1009.2
20260509190804 77 231 0.9 2.6 0.00 0.00 0.00 40 1009.2
20260509190304 76 181 1.7 4.3 0.00 0.00 0.00 38 1009.1
20260509185803 76 251 1.7 7.0 0.00 0.00 0.00 39 1009.2
20260509185306 76 242 1.7 4.3 0.00 0.00 0.00 41 1009.1
20260509184804 75 295 2.6 6.1 0.00 0.00 0.00 42 1009.4
20260509184303 74 212 0.9 2.6 0.00 0.00 0.00 44 1009.4
20260509183804 73 183 0.9 5.2 0.00 0.00 0.00 42 1009.4
20260509183304 73 213 1.7 5.2 0.00 0.00 0.00 40 1009.4
20260509181805 75 299 2.6 5.2 0.00 0.00 0.00 40 1009.5
20260509181304 75 207 0.9 2.6 0.00 0.00 0.00 40 1009.4
20260509180804 75 254 0.9 2.6 0.00 0.00 0.00 41 1009.4
20260509180305 74 248 0.9 2.6 0.00 0.00 0.00 42 1009.5
20260509175803 75 239 0.9 2.6 0.00 0.00 0.00 38 1009.7
20260509174803 76 167 0.9 2.6 0.00 0.00 0.00 42 1009.7
20260509174303 75 288 0.9 4.3 0.00 0.00 0.00 44 1009.9
20260509173804 74 224 0.9 4.3 0.00 0.00 0.00 45 1009.9
20260509173304 74 181 1.7 4.3 0.00 0.00 0.00 45 1009.9
20260509172803 74 189 0.9 4.3 0.00 0.00 0.00 45 1010.1
20260509172306 74 247 1.7 2.6 0.00 0.00 0.00 44 1010.2
20260509171803 74 55 1.7 6.1 0.00 0.00 0.00 45 1010.5
20260509171304 73 270 1.7 2.6 0.00 0.00 0.00 47 1010.4
20260509170804 72 248 2.6 7.8 0.00 0.00 0.00 45 1010.4
20260509170304 73 249 1.7 4.3 0.00 0.00 0.00 46 1010.6
20260509165803 73 314 1.7 4.3 0.00 0.00 0.00 45 1010.6
20260509165306 72 246 0.9 6.1 0.00 0.00 0.00 49 1010.6
20260509164305 71 139 1.7 4.3 0.00 0.00 0.00 49 1010.4
20260509163304 71 268 1.7 4.3 0.00 0.00 0.00 48 1010.5
20260509162803 71 186 2.6 4.3 0.00 0.00 0.00 51 1010.6
20260509162307 71 223 2.6 5.2 0.00 0.00 0.00 49 1010.8
20260509161803 71 231 1.7 5.2 0.00 0.00 0.00 50 1010.7
20260509161304 70 265 0.9 5.2 0.00 0.00 0.00 50 1010.7
20260509160804 70 281 1.7 4.3 0.00 0.00 0.00 50 1010.6
20260509160305 70 278 1.7 4.3 0.00 0.00 0.00 49 1010.6
20260509155803 70 289 1.7 2.6 0.00 0.00 0.00 51 1010.6
20260509155306 69 232 1.7 4.3 0.00 0.00 0.00 52 1010.5
20260509154803 69 253 1.7 5.2 0.00 0.00 0.00 50 1010.5
20260509154303 68 240 2.6 5.2 0.00 0.00 0.00 50 1010.5
20260509153804 68 245 1.7 4.3 0.00 0.00 0.00 54 1010.7
20260509153304 67 277 2.6 6.1 0.00 0.00 0.00 54 1010.7
20260509152804 67 248 0.9 5.2 0.00 0.00 0.00 54 1010.7
20260509152305 67 298 1.7 2.6 0.00 0.00 0.00 54 1010.8
20260509151304 67 255 1.7 7.0 0.00 0.00 0.00 54 1010.8
20260509150804 67 244 1.7 2.6 0.00 0.00 0.00 53 1010.8
20260509150303 67 237 2.6 5.2 0.00 0.00 0.00 54 1010.8
20260509145804 67 215 1.7 6.1 0.00 0.00 0.00 57 1010.8
20260509145306 67 254 0.9 4.3 0.00 0.00 0.00 57 1010.7
20260509144803 67 284 1.7 4.3 0.00 0.00 0.00 55 1010.7
20260509144304 67 298 1.7 5.2 0.00 0.00 0.00 55 1010.7
20260509143803 67 243 1.7 2.6 0.00 0.00 0.00 53 1010.7
20260509142307 67 253 0.9 4.3 0.00 0.00 0.00 56 1010.6
20260509141804 66 225 0.9 2.6 0.00 0.00 0.00 59 1010.5
20260509140803 64 254 0.9 2.6 0.00 0.00 0.00 61 1010.7
20260509140304 64 252 0.9 2.6 0.00 0.00 0.00 61 1010.7
20260509135804 64 257 1.7 5.2 0.00 0.00 0.00 60 1010.8
20260509134804 64 220 0.9 2.6 0.00 0.00 0.00 60 1011.2
20260509134304 64 272 1.7 5.2 0.00 0.00 0.00 61 1011.2
20260509133804 63 248 1.7 6.1 0.00 0.00 0.00 61 1011.2
20260509133304 63 240 2.6 5.2 0.00 0.00 0.00 61 1011.3
20260509132804 62 241 0.9 7.8 0.00 0.00 0.00 61 1011.3
20260509131804 62 261 1.7 7.0 0.00 0.00 0.00 62 1011.5
20260509131304 62 250 1.7 6.1 0.00 0.00 0.00 63 1011.5
20260509130804 62 270 0.9 2.6 0.00 0.00 0.00 62 1011.6
20260509130305 61 280 0.9 2.6 0.00 0.00 0.00 63 1011.7
20260509125307 61 237 0.9 5.2 0.00 0.00 0.00 63 1011.6
20260509124805 61 227 0.0 2.6 0.00 0.00 0.00 64 1011.7
20260509124303 61 236 0.9 2.6 0.00 0.00 0.00 64 1011.8
20260509123804 61 252 1.7 2.6 0.00 0.00 0.00 64 1011.8
20260509123304 60 226 1.7 6.1 0.00 0.00 0.00 63 1011.8
20260509122804 60 266 0.9 4.3 0.00 0.00 0.00 63 1011.8
20260509121803 60 261 0.9 1.7 0.00 0.00 0.00 65 1011.8
20260509121303 59 246 1.7 4.3 0.00 0.00 0.00 66 1011.8
20260509120804 59 244 0.9 2.6 0.00 0.00 0.00 65 1011.8
20260509120303 58 249 0.0 0.9 0.00 0.00 0.00 66 1011.8
20260509115804 58 243 0.0 0.0 0.00 0.00 0.00 66 1011.9
20260509115306 58 240 0.0 0.9 0.00 0.00 0.00 66 1011.8
20260509114803 57 231 0.0 0.9 0.00 0.00 0.00 66 1011.8
20260509114304 57 246 0.0 0.9 0.00 0.00 0.00 66 1011.8
20260509113804 57 285 0.0 0.9 0.00 0.00 0.00 65 1011.8
20260509112804 57 256 0.9 1.7 0.00 0.00 0.00 64 1011.8
20260509112306 56 297 0.0 1.7 0.00 0.00 0.00 64 1011.8
20260509111304 56 320 0.0 1.7 0.00 0.00 0.00 64 1011.8
20260509110804 56 252 0.0 1.7 0.00 0.00 0.00 63 1011.8
20260509110304 56 288 0.0 0.9 0.00 0.00 0.00 63 1011.8
20260509105804 56 326 0.0 0.0 0.00 0.00 0.00 63 1011.7
20260509105306 56 326 0.0 0.0 0.00 0.00 0.00 62 1011.7
20260509104804 56 326 0.9 1.7 0.00 0.00 0.00 62 1011.6
20260509104304 56 328 0.0 0.0 0.00 0.00 0.00 62 1011.5
20260509103805 56 328 0.9 1.7 0.00 0.00 0.00 62 1011.6
20260509103304 56 328 0.0 1.7 0.00 0.00 0.00 62 1011.7
20260509102804 56 326 0.0 0.9 0.00 0.00 0.00 62 1011.7
20260509102305 56 327 0.9 1.7 0.00 0.00 0.00 62 1011.8
20260509101303 56 333 0.0 2.6 0.00 0.00 0.00 61 1011.7
20260509100803 56 275 0.0 0.9 0.00 0.00 0.00 61 1011.7
20260509100303 56 297 0.9 2.6 0.00 0.00 0.00 61 1011.7
20260509095804 56 256 0.0 2.6 0.00 0.00 0.00 61 1011.7
20260509095306 56 265 0.9 2.6 0.00 0.00 0.00 61 1011.8
20260509094803 56 255 0.9 1.7 0.00 0.00 0.00 61 1011.8
20260509094305 56 271 0.9 2.6 0.00 0.00 0.00 61 1011.7
20260509093804 56 259 0.0 0.9 0.00 0.00 0.00 61 1011.7
20260509093304 56 309 0.9 1.7 0.00 0.00 0.00 61 1011.7
20260509092804 56 275 0.0 2.6 0.00 0.00 0.00 60 1011.7
20260509092306 56 314 0.0 0.9 0.00 0.00 0.00 60 1011.7
20260509091804 56 336 0.9 1.7 0.00 0.00 0.00 59 1011.7
20260509091304 56 323 0.9 2.6 0.00 0.00 0.00 59 1011.8
20260509090803 56 295 0.0 1.7 0.00 0.00 0.00 59 1011.9
20260509090303 56 232 0.0 2.6 0.00 0.00 0.00 59 1011.9
20260509085804 56 262 0.9 2.6 0.00 0.00 0.00 58 1011.8
20260509085306 56 333 0.9 2.6 0.00 0.00 0.00 58 1011.9
20260509084804 55 302 0.9 1.7 0.00 0.00 0.00 58 1011.9
20260509084305 55 326 0.9 0.9 0.00 0.00 0.00 57 1011.9
20260509083804 55 16 0.9 1.7 0.00 0.00 0.00 57 1011.9
20260509083304 55 252 0.9 1.7 0.00 0.00 0.00 56 1011.9
20260509082804 56 302 0.0 1.7 0.00 0.00 0.00 55 1012.0
20260509082307 56 320 0.9 1.7 0.00 0.00 0.00 55 1012.0
20260509081803 56 304 0.0 1.7 0.00 0.00 0.00 55 1012.0
20260509081303 56 327 0.9 1.7 0.00 0.00 0.00 54 1012.0
20260509080804 56 257 1.7 2.6 0.00 0.00 0.00 54 1012.1
20260509080303 56 305 0.0 0.9 0.00 0.00 0.00 53 1012.1
20260509075803 56 320 0.0 0.9 0.00 0.00 0.00 53 1012.2
20260509075306 56 283 0.9 2.6 0.00 0.00 0.00 53 1012.2
20260509074303 56 321 0.9 2.6 0.00 0.00 0.00 52 1012.3
20260509073803 56 316 0.9 1.7 0.00 0.00 0.00 52 1012.3
20260509073304 56 323 0.9 2.6 0.00 0.00 0.00 53 1012.4
20260509072804 55 340 0.9 0.9 0.00 0.00 0.00 53 1012.4
20260509072306 55 262 0.0 1.7 0.00 0.00 0.00 53 1012.5
20260509071804 55 320 0.0 0.9 0.00 0.00 0.00 54 1012.6
20260509070804 55 92 0.9 1.7 0.00 0.00 0.00 54 1012.7
20260509070304 56 91 0.0 1.7 0.00 0.00 0.00 55 1012.7
20260509065804 56 92 0.0 0.9 0.00 0.00 0.00 54 1012.7
20260509065306 56 92 0.9 1.7 0.00 0.00 0.00 54 1012.7
20260509064804 56 347 0.0 0.9 0.00 0.00 0.00 53 1012.8